STARLINK-31432, 59932

Orbit data source: Space-Track

STARLINK-31432, 59932 is a payload satellite owned by SpaceX/Seattle (US) in LEO that was launched on Sat, 01 Jun 2024 UTC via an FALCON 9 launch vehicle from the Air Force Eastern Test Range (AFETR). Payload-class satellites include a variety of spacecraft equipped with specific instruments for various scientific and technological missions. These include communications satellites like Starlink; space stations such as the ISS; scientific satellites like the Hubble; Earth observation satellites from companies like Planet Labs, Umbra, and HawkEye 360; GPS; miniature CubeSats for education and research; and military/defense satellites.

Loading next visibility...
Identifier
59932, 2024-106L
Orbit
LEO
Country
Flag of USUS
Related business
Manufacturer
SpaceX/Seattle
Mission
Operational spacecraft
Bus & Motor
STARLINK V2M, Unknown motor
Mass
730 kg wet, ~700 kg dry
Launch date (UTC)
2024-06-01 (1 year ago)
Launch vehicle
FALCON 9
Launch site
Air Force Eastern Test Range (AFETR)
Object type
Payload
Rocket body
Debris
Shape & HBR
Unknown
Radar Cross Section
Large (>1 m²)

Expand to show TLE details & history
Last TLE update: 1 day ago

TLE from 1 day ago
0 STARLINK-31432
1 59932U 24106L   25258.02097603 -.00035229  00000-0 -12772-2 0  9994
2 59932  43.0023 244.8673 0001010 179.3872 180.6981 15.27569702 73653
Epoch: 2025-09-15T00:30Z
TLE epoch observation values (Epoch: 2025-09-15T00:30:12.328Z)
Latitude
-0.00004°
Longitude
-116.91573°
Altitude
483.548 km
Speed
7.625 km/s
True Right ascension
16h 19m 28s
True Declination
0° 00' 00"
Sunlit
Object was in daylight at epoch
Visualization orbit readout
Latitude
Unknown
Longitude
Unknown
Altitude
Unknown
Speed
Unknown
Apparent Right ascension
Unknown
Apparent Declination
Unknown
Sunlit
N/A
Visualization observer readout
Local Sidereal Time
17:02:29
Azimuth
Unknown
Elevation
Unknown
Doppler factor
Unknown
Orbital elements
Apogee altitude
485.718 km
Perigee altitude
484.332 km
Semi-major axis
6,863.162 km
Eccentricity
0.0001
Inclination
43.0023°
RAAN
244.8673°
Arg. of periapsis
179.3872°
True anomaly
180.69796°
Mean anomaly
180.6981°
Eccentric anomaly
180.69803°
Mean motion
3.8173 °/min
Orbital period
94.31 mins
BSTAR
-0.0012772
Loading maneuver chart data...
Computing Atmospheric mass density...
Loading historical data...
Loading historical data...
Loading historical data...
Loading historical data...
Loading historical data...
Loading historical data...
Loading historical data...

Documentation

Showing up to 5 results
|